Weather History for Whiteman AFB, MO

Change the Weather History Date:

Wednesday, January 30, 2013

  Actual Average Record
Temperature  
Mean Temperature 30 °F -  
Max Temperature 37 °F 39 °F 63 °F (2012)
Min Temperature 24 °F 22 °F 0 °F (2004)
Degree Days  
Heating Degree Days 34    
Moisture  
Dew Point 29 °F    
Average Humidity 93    
Maximum Humidity 100    
Minimum Humidity 70    
Precipitation  
Precipitation 0.01 in - - ()
Sea Level Pressure  
Sea Level Pressure 29.65 in    
Wind  
Wind Speed 13 mph (NW)    
Max Wind Speed 23 mph    
Max Gust Speed 31 mph    
Visibility 8 miles    
Events Rain , Snow    
Averages and records for this station are not official NWS values.
T = Trace of Precipitation, MM = Missing Value Source: NWS Daily Summary

Daily Weather History Graph

Daily Weather History Graph

Search for Another Location

Airport:

Trip Planner

Search our weather history database for the weather conditions in past years. The results will help you decide how hot, cold, wet, or windy it might be!

Date:

Astronomy

Jan. 30, 2013 Rise Set
Actual Time 7:21 AM CST 5:33 PM CST
Civil Twilight 6:53 AM CST 6:02 PM CST
Nautical Twilight 6:21 AM CST 6:34 PM CST
Astronomical Twilight 5:50 AM CST 7:05 PM CST
Moon 9:30 PM CST (1/30) 8:52 AM CST (1/30)
Length of Visible Light 11h 08m
Length of Day
10h 12m
Waning Gibbous, 87% of the Moon is Illuminated
Jan 30
Waning Gibbous
Feb 3
Last Quarter
Feb 10
New
Feb 17
First Quarter
Feb 25
Full

Hourly Weather History & Observations

Time (CST) Temp. Windchill Dew Point Humidity Pressure Visibility Wind Dir Wind Speed Gust Speed Precip Events Conditions
12:04 AM 37.4 °F 28.9 °F 37.4 °F 100% 29.46 in 10.0 mi NE 13.8 mph - N/A   Overcast
12:29 AM 37.4 °F 30.3 °F 37.4 °F 100% 29.46 in 10.0 mi NE 10.4 mph - N/A   Overcast
12:55 AM 37.2 °F 30.6 °F 37.2 °F 100% 29.44 in 10.0 mi NNE 9.2 mph - 0.00 in   Overcast
1:08 AM 37.4 °F 32.8 °F 37.4 °F 100% 29.47 in 10.0 mi North 5.8 mph - N/A   Overcast
1:41 AM 37.4 °F 29.3 °F 37.4 °F 100% 29.51 in 10.0 mi West 12.7 mph 17.3 mph N/A   Overcast
1:55 AM 37.4 °F 30.8 °F 37.4 °F 100% 29.50 in 10.0 mi WNW 9.2 mph - 0.00 in   Light Drizzle
2:01 AM 37.4 °F 30.3 °F 37.4 °F 100% 29.49 in 7.0 mi WNW 10.4 mph - N/A   Light Drizzle
2:03 AM 37.4 °F 30.3 °F 37.4 °F 100% 29.49 in 7.0 mi WNW 10.4 mph - N/A   Light Drizzle
2:27 AM 37.4 °F 30.3 °F 37.4 °F 100% 29.47 in 7.0 mi NW 10.4 mph - N/A   Light Drizzle
2:31 AM 37.4 °F 30.8 °F 37.4 °F 100% 29.47 in 8.0 mi WNW 9.2 mph - N/A   Light Drizzle
2:37 AM 37.4 °F 30.3 °F 37.4 °F 100% 29.48 in 10.0 mi West 10.4 mph - N/A   Overcast
2:55 AM 36.7 °F 28.4 °F 36.7 °F 100% 29.49 in 9.0 mi West 12.7 mph - 0.00 in   Overcast
3:07 AM 35.6 °F 28.6 °F 35.6 °F 100% 29.49 in 10.0 mi WNW 9.2 mph - N/A   Light Drizzle
3:21 AM 35.6 °F 27.1 °F 35.6 °F 100% 29.48 in 8.0 mi West 12.7 mph - N/A   Overcast
3:35 AM 35.6 °F 29.2 °F 35.6 °F 100% 29.47 in 5.0 mi WNW 8.1 mph - N/A   Light Drizzle
3:55 AM 36.0 °F 29.0 °F 36.0 °F 100% 29.47 in 7.0 mi WNW 9.2 mph - 0.00 in   Light Drizzle
3:56 AM 35.6 °F 28.0 °F 35.6 °F 100% 29.47 in 7.0 mi NW 10.4 mph - N/A   Overcast
3:57 AM 35.6 °F 27.5 °F 35.6 °F 100% 29.47 in 6.0 mi NW 11.5 mph - N/A   Light Drizzle
4:07 AM 35.6 °F 28.6 °F 35.6 °F 100% 29.48 in 6.0 mi NW 9.2 mph - N/A   Light Drizzle
4:08 AM 35.6 °F 28.0 °F 35.6 °F 100% 29.48 in 7.0 mi NW 10.4 mph - N/A   Overcast
4:14 AM 35.6 °F 27.5 °F 35.6 °F 100% 29.48 in 8.0 mi WNW 11.5 mph - N/A   Light Drizzle
4:21 AM 35.6 °F 26.6 °F 35.6 °F 100% 29.49 in 9.0 mi WNW 13.8 mph - N/A   Light Drizzle
4:28 AM 35.6 °F 27.5 °F 35.6 °F 100% 29.49 in 10.0 mi WNW 11.5 mph - N/A   Overcast
4:41 AM 35.6 °F 26.2 °F 35.6 °F 100% 29.50 in 5.0 mi WNW 15.0 mph 19.6 mph N/A   Light Drizzle
4:55 AM 34.9 °F 25.7 °F 34.9 °F 100% 29.51 in 5.0 mi WNW 13.8 mph - 0.00 in   Light Drizzle
4:56 AM 35.6 °F 26.2 °F 35.6 °F 100% 29.51 in 5.0 mi NW 15.0 mph - N/A   Light Drizzle
5:07 AM 33.8 °F 25.8 °F 33.8 °F 100% 29.51 in 6.0 mi WNW 10.4 mph - N/A   Light Drizzle
5:20 AM 33.8 °F 26.4 °F 33.8 °F 100% 29.51 in 6.0 mi NW 9.2 mph - N/A   Light Drizzle
5:23 AM 33.8 °F 24.3 °F 33.8 °F 100% 29.52 in 7.0 mi NW 13.8 mph - N/A   Light Drizzle
5:32 AM 33.8 °F 24.8 °F 33.8 °F 100% 29.51 in 8.0 mi NW 12.7 mph - N/A   Light Drizzle
5:36 AM 33.8 °F 24.8 °F 33.8 °F 100% 29.51 in 8.0 mi NNW 12.7 mph - N/A   Light Drizzle
5:38 AM 33.8 °F 25.8 °F 33.8 °F 100% 29.51 in 9.0 mi NW 10.4 mph - N/A   Overcast
5:55 AM 34.0 °F 24.6 °F 34.0 °F 100% 29.52 in 10.0 mi NW 13.8 mph 18.4 mph 0.00 in   Overcast
5:57 AM 33.8 °F 25.8 °F 33.8 °F 100% 29.53 in 10.0 mi NW 10.4 mph - N/A   Light Drizzle
6:14 AM 33.8 °F 22.5 °F 33.8 °F 100% 29.50 in 6.0 mi NW 19.6 mph 24.2 mph N/A Snow Light Snow
6:34 AM 32.0 °F 19.2 °F 32.0 °F 100% 29.55 in 6.0 mi NNW 23.0 mph 29.9 mph N/A Rain , Snow Light Rain
6:55 AM 31.3 °F 20.3 °F 31.1 °F 99% 29.57 in 8.0 mi NNW 16.1 mph - 0.01 in Rain Light Freezing Rain
7:04 AM 30.2 °F 18.5 °F 30.2 °F 100% 29.58 in 6.0 mi NNW 17.3 mph 25.3 mph N/A Snow Light Snow
7:39 AM 30.2 °F 18.5 °F 30.2 °F 100% 29.60 in 6.0 mi NNW 17.3 mph 24.2 mph N/A   Light Freezing Drizzle
7:55 AM 29.5 °F 19.3 °F 29.3 °F 99% 29.62 in 4.0 mi NNW 12.7 mph - 0.00 in Snow Light Snow
8:02 AM 30.2 °F 19.8 °F 28.4 °F 93% 29.63 in 9.0 mi NNW 13.8 mph - N/A Snow Light Freezing Drizzle
8:14 AM 28.4 °F 17.5 °F 28.4 °F 100% 29.65 in 5.0 mi NNW 13.8 mph 20.7 mph N/A Snow Light Snow
8:37 AM 28.4 °F 17.0 °F 28.4 °F 100% 29.66 in 8.0 mi NNW 15.0 mph 25.3 mph N/A Snow Light Snow
8:55 AM 28.2 °F 17.7 °F 27.9 °F 99% 29.67 in 1.0 mi NW 12.7 mph - 0.00 in Snow Light Snow
9:05 AM 28.4 °F 15.4 °F 28.4 °F 100% 29.68 in 2.0 mi WNW 19.6 mph 24.2 mph N/A Snow Light Snow
9:14 AM 26.6 °F 13.1 °F 26.6 °F 100% 29.69 in 3.0 mi NW 19.6 mph 26.5 mph N/A Snow Light Snow
9:42 AM 26.6 °F 13.8 °F 26.6 °F 100% 29.71 in 2.0 mi NW 17.3 mph 28.8 mph N/A Snow Light Snow
9:55 AM 26.6 °F 14.7 °F 26.4 °F 99% 29.71 in 1.0 mi WNW 15.0 mph 20.7 mph 0.00 in Snow Light Snow
10:55 AM 26.1 °F 13.1 °F 25.9 °F 99% 29.75 in 1.0 mi WNW 17.3 mph - 0.00 in Snow Light Snow
11:05 AM 26.6 °F 13.8 °F 26.6 °F 100% 29.76 in 2.5 mi WNW 17.3 mph - N/A Snow Light Snow
11:15 AM 26.6 °F 13.1 °F 26.6 °F 100% 29.76 in 3.0 mi WNW 19.6 mph 26.5 mph N/A Snow Light Snow
11:36 AM 26.6 °F 13.4 °F 24.8 °F 93% 29.75 in 4.0 mi NW 18.4 mph 28.8 mph N/A Snow Light Snow
11:55 AM 27.1 °F 13.1 °F 24.3 °F 89% 29.75 in 4.0 mi NW 21.9 mph 28.8 mph 0.00 in Snow Light Snow
12:55 PM 27.9 °F 14.0 °F 24.4 °F 87% 29.77 in 10.0 mi NW 21.9 mph 31.1 mph 0.00 in Snow Light Snow
1:08 PM 28.4 °F 14.7 °F 24.8 °F 86% 29.76 in 10.0 mi NW 21.9 mph 28.8 mph N/A   Overcast
1:55 PM 27.9 °F 14.7 °F 22.6 °F 81% 29.77 in 10.0 mi NW 19.6 mph 29.9 mph 0.00 in   Overcast
2:55 PM 27.5 °F 14.6 °F 21.4 °F 78% 29.80 in 10.0 mi WNW 18.4 mph 24.2 mph 0.00 in   Overcast
3:55 PM 26.6 °F 12.7 °F 19.0 °F 73% 29.85 in 10.0 mi WNW 20.7 mph 29.9 mph 0.00 in   Overcast
4:55 PM 26.2 °F 13.0 °F 17.6 °F 70% 29.88 in 10.0 mi WNW 18.4 mph 26.5 mph 0.00 in   Overcast
5:55 PM 25.7 °F 12.3 °F 18.0 °F 73% 29.91 in 10.0 mi West 18.4 mph 21.9 mph 0.00 in   Overcast
6:55 PM 25.3 °F 14.1 °F 16.9 °F 70% 29.94 in 10.0 mi WNW 12.7 mph - 0.00 in   Overcast
7:55 PM 25.5 °F 14.3 °F 17.2 °F 71% 29.96 in 10.0 mi WNW 12.7 mph - N/A   Overcast
8:12 PM 24.8 °F 12.9 °F 17.6 °F 74% 29.97 in 10.0 mi West 13.8 mph - N/A   Overcast
8:25 PM 24.8 °F 12.9 °F 17.6 °F 74% 29.97 in 10.0 mi WNW 13.8 mph 24.2 mph N/A   Overcast
8:31 PM 24.8 °F 11.5 °F 17.6 °F 74% 29.97 in 10.0 mi WNW 17.3 mph 24.2 mph N/A   Overcast
8:39 PM 24.8 °F 11.5 °F 17.6 °F 74% 29.98 in 10.0 mi WNW 17.3 mph - N/A   Overcast
8:55 PM 25.2 °F 12.0 °F 16.9 °F 71% 29.98 in 10.0 mi WNW 17.3 mph 24.2 mph 0.00 in   Overcast
9:55 PM 25.3 °F 14.7 °F 18.0 °F 74% 29.99 in 10.0 mi West 11.5 mph - N/A   Overcast
9:56 PM 24.8 °F 12.4 °F 17.6 °F 74% 29.99 in 10.0 mi West 15.0 mph - N/A   Overcast
10:10 PM 24.8 °F 12.4 °F 17.6 °F 74% 29.99 in 10.0 mi West 15.0 mph - N/A   Overcast
10:55 PM 24.3 °F 12.7 °F 16.0 °F 71% 30.01 in 10.0 mi WNW 12.7 mph - 0.00 in   Overcast
11:55 PM 24.3 °F 14.6 °F 16.0 °F 71% 30.01 in 10.0 mi West 9.2 mph - 0.00 in   Overcast